EW6135 Weather Reports


Display with metric or nautical units.
time (UTC)temp
F
wind
direction
speed
MPH
gust
MPH
rain 1hr
in
rain 24hr
in
rain mn
in
humidity
%
barometer
mb
20260905034528 77 248 0.0 2.0 0.00 0.02 0.02 88 1014.1
20260905034021 77 248 0.0 3.0 0.00 0.02 0.02 87 1014.4
20260905033521 77 13 0.0 2.0 0.00 0.02 0.02 87 1014.6
20260905033023 78 4 0.0 5.0 0.00 0.02 0.02 87 1014.9
20260905032520 78 70 0.0 6.0 0.00 0.02 0.02 87 1014.9
20260905032019 78 66 0.0 6.0 0.00 0.02 0.02 87 1015.1
20260905031531 78 57 2.0 9.0 0.00 0.02 0.02 87 1015.2
20260905031018 78 47 3.0 12.0 0.00 0.02 0.02 87 1015.4
20260905030618 79 331 3.0 12.0 0.00 0.02 0.02 87 1015.6
20260905030026 79 30 3.0 9.0 0.00 0.02 0.02 90 1015.6
20260905025518 80 37 0.0 8.0 0.00 0.02 0.02 95 1015.6
20260905025017 80 22 0.0 6.0 0.00 0.02 0.02 96 1015.5
20260905024518 80 203 1.0 7.0 0.00 0.02 0.02 96 1015.4
20260905024018 80 32 1.0 7.0 0.00 0.02 0.02 96 1015.5
20260905023517 79 8 2.0 5.0 0.00 0.02 0.02 96 1015.4
20260905023028 79 245 0.0 2.0 0.00 0.02 0.02 96 1014.8
20260905022517 79 240 0.0 2.0 0.00 0.02 0.02 96 1014.9
20260905022017 79 248 0.0 1.0 0.00 0.02 0.02 96 1014.9
20260905021518 79 248 0.0 1.0 0.00 0.02 0.02 95 1015.0
20260905021017 80 247 0.0 1.0 0.00 0.02 0.02 95 1015.1
20260905020516 80 247 0.0 1.0 0.00 0.02 0.02 95 1015.0
20260905020016 80 248 0.0 1.0 0.00 0.02 0.02 95 1014.9
20260905015516 80 248 0.0 1.0 0.00 0.02 0.02 95 1014.9
20260905015019 80 248 0.0 1.0 0.00 0.02 0.02 95 1015.0
20260905014517 80 248 0.0 3.0 0.00 0.02 0.02 95 1014.9
20260905014016 80 245 0.0 6.0 0.00 0.02 0.02 95 1014.9
20260905013515 80 243 1.0 4.0 0.00 0.02 0.02 96 1014.6
20260905013017 80 237 0.0 4.0 0.00 0.02 0.02 96 1014.4
20260905012516 80 237 0.0 4.0 0.00 0.02 0.02 96 1014.4
20260905012016 80 243 0.0 4.0 0.00 0.02 0.02 96 1014.3
20260905011516 80 241 0.0 4.0 0.00 0.02 0.02 96 1014.2
20260905011018 80 264 0.0 3.0 0.00 0.02 0.02 96 1014.0
20260905010516 80 241 0.0 2.0 0.00 0.02 0.02 96 1013.7
20260905010017 80 241 0.0 2.0 0.00 0.02 0.02 96 1013.9
20260905005518 80 223 0.0 2.0 0.00 0.02 0.02 96 1013.8
20260905005015 80 223 0.0 3.0 0.00 0.02 0.02 96 1013.7
20260905004517 80 223 1.0 3.0 0.00 0.02 0.02 96 1013.8
20260905004014 80 153 0.0 3.0 0.01 0.02 0.02 95 1013.9
20260905003515 80 182 0.0 3.0 0.01 0.02 0.02 95 1013.8
20260905003014 80 243 0.0 1.0 0.01 0.02 0.02 94 1013.7
20260905002513 80 243 0.0 1.0 0.01 0.02 0.02 94 1013.7
20260905002013 80 243 0.0 0.0 0.01 0.02 0.02 94 1013.7
20260905001513 80 243 0.0 1.0 0.01 0.02 0.02 93 1013.6
20260905001013 80 243 0.0 1.0 0.01 0.02 0.02 93 1013.4
20260905000513 81 243 0.0 2.0 0.01 0.02 0.02 93 1013.3
20260905000014 81 241 0.0 2.0 0.01 0.03 0.02 92 1013.1
20260904235615 81 244 0.0 3.0 0.01 0.03 0.02 92 1013.2
20260904235014 81 243 1.0 3.0 0.01 0.03 0.02 91 1013.2
20260904234511 81 233 0.0 1.0 0.01 0.03 0.02 91 1013.3
20260904234015 81 233 0.0 2.0 0.00 0.02 0.01 90 1013.3
20260904233513 82 233 0.0 4.0 0.00 0.02 0.01 89 1013.3
20260904233012 82 233 0.0 5.0 0.00 0.02 0.01 88 1013.1
20260904232513 82 233 0.0 5.0 0.00 0.02 0.01 87 1013.2
20260904232012 82 241 0.0 3.0 0.00 0.02 0.01 87 1013.3
20260904231516 83 242 1.0 2.0 0.00 0.02 0.01 86 1013.3
20260904231012 83 241 0.0 4.0 0.00 0.02 0.01 85 1013.2
20260904230511 83 241 0.0 4.0 0.00 0.02 0.01 85 1013.2
20260904230011 84 246 0.0 3.0 0.00 0.02 0.01 84 1013.2
20260904225510 84 239 1.0 3.0 0.00 0.02 0.01 83 1013.1
20260904225011 84 268 0.0 5.0 0.00 0.02 0.01 83 1013.1
20260904224511 85 238 1.0 5.0 0.00 0.02 0.01 83 1013.0
20260904224010 85 212 0.0 5.0 0.00 0.02 0.01 83 1013.1
20260904223510 85 262 1.0 5.0 0.00 0.02 0.01 82 1013.1
20260904223010 86 243 0.0 6.0 0.00 0.02 0.01 82 1013.0
20260904222511 86 210 0.0 7.0 0.00 0.02 0.01 82 1013.0
20260904222011 86 189 1.0 8.0 0.00 0.02 0.01 81 1012.9
20260904221511 87 236 2.0 11.0 0.00 0.02 0.01 80 1012.9
20260904221011 87 231 3.0 11.0 0.00 0.02 0.01 79 1012.9
20260904220511 87 268 3.0 10.0 0.00 0.02 0.01 79 1012.9
20260904220011 87 265 2.0 11.0 0.00 0.02 0.01 79 1013.0
20260904215510 88 197 2.0 11.0 0.00 0.02 0.01 79 1013.0
20260904215011 88 262 2.0 9.0 0.00 0.02 0.01 79 1013.0
20260904214530 88 255 2.0 8.0 0.00 0.02 0.01 78 1013.0
20260904214012 88 269 3.0 8.0 0.00 0.02 0.01 78 1013.1
20260904213510 89 247 3.0 7.0 0.00 0.02 0.01 78 1013.3
20260904213010 89 226 3.0 9.0 0.00 0.02 0.01 77 1013.1
20260904212515 89 224 3.0 9.0 0.00 0.02 0.01 77 1013.1
20260904212021 89 186 3.0 9.0 0.00 0.02 0.01 78 1012.9
20260904211516 89 260 3.0 13.0 0.00 0.02 0.01 77 1012.8
20260904211014 89 260 3.0 8.0 0.00 0.02 0.01 78 1012.7
20260904210514 89 142 3.0 12.0 0.00 0.02 0.01 79 1012.7
20260904210014 89 268 5.0 14.0 0.00 0.02 0.01 78 1012.6
20260904205513 89 186 3.0 14.0 0.00 0.02 0.01 78 1012.7
20260904205012 89 161 4.0 9.0 0.00 0.02 0.01 78 1012.8
20260904204511 89 244 2.0 11.0 0.00 0.02 0.01 78 1012.9
20260904204011 90 250 2.0 11.0 0.00 0.02 0.01 78 1012.8
20260904203511 89 258 2.0 8.0 0.00 0.02 0.01 79 1012.9
20260904203010 89 233 4.0 9.0 0.00 0.02 0.01 77 1013.1
20260904202505 89 250 4.0 9.0 0.00 0.02 0.01 78 1013.1
20260904202007 89 255 3.0 11.0 0.00 0.02 0.01 78 1013.2
20260904201503 89 277 3.0 11.0 0.00 0.02 0.01 78 1013.4
20260904201003 90 224 2.0 8.0 0.00 0.02 0.01 79 1013.5
20260904200501 90 255 4.0 9.0 0.00 0.02 0.01 78 1013.6
20260904195559 89 221 3.0 12.0 0.00 0.02 0.01 78 1013.8
20260904195058 90 197 4.0 12.0 0.00 0.02 0.01 77 1014.1
20260904194603 90 260 3.0 9.0 0.00 0.02 0.01 79 1014.0
20260904194057 90 250 3.0 13.0 0.00 0.02 0.01 78 1014.1
20260904193557 90 246 4.0 9.0 0.00 0.02 0.01 78 1014.2
20260904193056 90 285 3.0 9.0 0.00 0.02 0.01 77 1014.3
20260904192055 90 204 2.0 11.0 0.00 0.02 0.01 79 1014.5
20260904191555 90 261 2.0 7.0 0.00 0.02 0.01 78 1014.5
20260904191054 90 149 3.0 7.0 0.00 0.02 0.01 77 1014.6
20260904190554 90 278 2.0 8.0 0.00 0.02 0.01 78 1014.6
20260904190056 90 286 3.0 9.0 0.00 0.02 0.01 77 1014.7
20260904185552 90 224 3.0 10.0 0.00 0.02 0.01 78 1014.6
20260904185051 90 216 4.0 9.0 0.00 0.02 0.01 77 1014.6
20260904184603 90 231 1.0 9.0 0.00 0.02 0.01 78 1014.7
20260904184051 91 246 4.0 9.0 0.00 0.02 0.01 76 1014.8
20260904183550 91 221 2.0 8.0 0.00 0.02 0.01 75 1014.8
20260904183050 91 283 1.0 10.0 0.00 0.02 0.01 77 1015.0
20260904182049 91 160 0.0 8.0 0.00 0.02 0.01 77 1015.1
20260904181550 90 212 3.0 8.0 0.00 0.02 0.01 76 1015.1
20260904181047 91 271 3.0 7.0 0.00 0.02 0.01 76 1015.1
20260904180547 91 265 3.0 11.0 0.00 0.02 0.01 76 1015.3
20260904180100 91 195 2.0 11.0 0.00 0.02 0.01 76 1015.3
20260904175546 91 233 2.0 7.0 0.00 0.02 0.01 76 1015.3
20260904175046 91 263 4.0 11.0 0.00 0.02 0.01 75 1015.4
20260904174547 91 238 2.0 11.0 0.00 0.02 0.01 76 1015.4
20260904174145 90 245 3.0 8.0 0.00 0.02 0.01 77 1015.4
20260904173543 90 215 3.0 8.0 0.00 0.02 0.01 77 1015.4
20260904173049 90 219 2.0 11.0 0.00 0.02 0.01 80 1015.4
20260904172044 90 259 4.0 11.0 0.00 0.02 0.01 78 1015.6
20260904171547 90 227 3.0 8.0 0.00 0.02 0.01 78 1015.6
20260904171043 90 120 3.0 9.0 0.00 0.02 0.01 78 1015.6
20260904170541 90 227 3.0 9.0 0.00 0.02 0.01 78 1015.7
20260904170041 90 220 3.0 8.0 0.00 0.02 0.01 78 1015.6
20260904165541 90 101 2.0 11.0 0.00 0.02 0.01 78 1015.6
20260904165043 89 259 2.0 16.0 0.00 0.02 0.01 80 1015.7
20260904164540 89 256 2.0 16.0 0.00 0.02 0.01 82 1015.7
20260904164043 89 236 4.0 13.0 0.00 0.02 0.01 80 1015.7
20260904163540 89 268 3.0 10.0 0.00 0.02 0.01 78 1015.8
20260904163040 89 281 3.0 9.0 0.00 0.02 0.01 80 1015.8
20260904162038 89 262 5.0 9.0 0.00 0.02 0.01 80 1016.0
20260904161538 89 223 4.0 9.0 0.00 0.02 0.01 81 1016.0
20260904161038 90 251 2.0 8.0 0.00 0.02 0.01 80 1016.2
20260904160538 89 216 1.0 12.0 0.00 0.02 0.01 81 1016.2
20260904160041 90 249 2.0 12.0 0.00 0.02 0.01 80 1016.3
20260904155537 90 234 1.0 6.0 0.00 0.02 0.01 80 1016.3
20260904155035 89 259 3.0 9.0 0.00 0.02 0.01 80 1016.2
20260904154535 89 219 3.0 9.0 0.00 0.02 0.01 80 1016.3
20260904154036 89 238 4.0 9.0 0.00 0.02 0.01 79 1016.3
20260904153535 88 256 3.0 7.0 0.00 0.02 0.01 79 1016.3
20260904153043 88 229 2.0 10.0 0.00 0.02 0.01 79 1016.3
20260904152034 89 236 2.0 10.0 0.00 0.02 0.01 80 1016.3
20260904151535 89 238 3.0 10.0 0.00 0.02 0.01 80 1016.2
20260904151033 88 253 2.0 11.0 0.00 0.02 0.01 80 1016.3
20260904150533 88 218 4.0 11.0 0.00 0.02 0.01 80 1016.3
20260904150032 88 188 3.0 6.0 0.00 0.02 0.01 81 1016.3
20260904145530 87 236 1.0 6.0 0.00 0.02 0.01 81 1016.3
20260904145031 87 246 2.0 7.0 0.00 0.02 0.01 82 1016.4
20260904144532 87 262 3.0 7.0 0.00 0.02 0.01 82 1016.4
20260904144028 87 210 1.0 6.0 0.00 0.02 0.01 85 1016.3
20260904143528 86 271 3.0 6.0 0.00 0.02 0.01 84 1016.4
20260904143028 86 257 3.0 8.0 0.00 0.02 0.01 83 1016.3
20260904142020 86 226 3.0 6.0 0.00 0.02 0.01 84 1016.3
20260904141519 86 244 3.0 8.0 0.00 0.02 0.01 84 1016.3
20260904141018 86 248 4.0 8.0 0.00 0.02 0.01 84 1016.2
20260904140518 85 252 4.0 8.0 0.00 0.02 0.01 84 1016.2
20260904140017 86 224 3.0 7.0 0.00 0.02 0.01 86 1016.1
20260904135516 85 233 2.0 8.0 0.00 0.02 0.01 87 1016.1
20260904135015 85 264 3.0 8.0 0.00 0.02 0.01 88 1016.1
20260904134513 85 257 3.0 7.0 0.00 0.02 0.01 89 1016.1
20260904134015 84 250 3.0 7.0 0.00 0.02 0.01 89 1016.1
20260904133512 85 245 2.0 5.0 0.00 0.02 0.01 90 1016.1
20260904133012 83 251 2.0 8.0 0.00 0.02 0.01 93 1016.0
20260904132019 83 247 2.0 5.0 0.00 0.02 0.01 93 1016.1
20260904131517 83 258 2.0 7.0 0.00 0.02 0.01 94 1016.2
20260904131015 82 231 3.0 7.0 0.00 0.02 0.01 94 1016.3
20260904130515 82 211 1.0 6.0 0.00 0.02 0.01 95 1016.2
20260904130014 82 248 2.0 5.0 0.00 0.02 0.01 96 1016.2
20260904125513 81 243 2.0 5.0 0.00 0.02 0.01 96 1016.3
20260904125012 81 226 2.0 5.0 0.00 0.02 0.01 97 1016.2
20260904124511 81 230 2.0 5.0 0.00 0.02 0.01 97 1016.3
20260904124010 81 239 0.0 4.0 0.00 0.02 0.01 98 1016.3
20260904123508 80 262 1.0 4.0 0.00 0.02 0.01 98 1016.2
20260904123008 80 244 0.0 3.0 0.00 0.02 0.01 99 1016.1
20260904122007 79 259 0.0 3.0 0.00 0.02 0.01 99 1016.1
20260904121504 78 258 1.0 3.0 0.00 0.02 0.01 99 1016.1
20260904121005 78 242 0.0 2.0 0.00 0.02 0.01 99 1016.0
20260904120503 78 250 0.0 3.0 0.00 0.02 0.01 100 1016.1
20260904120004 78 250 1.0 3.0 0.00 0.02 0.01 100 1016.1
20260904115502 77 259 0.0 2.0 0.00 0.02 0.01 100 1016.1
20260904115002 76 268 0.0 0.0 0.00 0.02 0.01 100 1016.1
20260904114502 76 268 0.0 0.0 0.00 0.02 0.01 100 1016.1
20260904114002 75 268 0.0 0.0 0.00 0.02 0.01 100 1016.2
20260904113503 75 268 0.0 0.0 0.00 0.02 0.01 100 1016.2
20260904113002 74 268 0.0 0.0 0.00 0.02 0.01 100 1016.1
20260904112100 74 268 0.0 0.0 0.00 0.02 0.01 100 1016.0
20260904111601 74 268 0.0 0.0 0.00 0.02 0.01 100 1016.0
20260904111100 74 268 0.0 0.0 0.00 0.02 0.01 100 1016.1
20260904110600 73 268 0.0 0.0 0.00 0.02 0.01 100 1016.1
20260904110105 73 268 0.0 0.0 0.00 0.02 0.01 100 1016.0
20260904105600 73 268 0.0 0.0 0.00 0.03 0.01 99 1016.0
20260904105100 73 268 0.0 0.0 0.00 0.03 0.01 99 1016.0
20260904104611 74 268 0.0 0.0 0.00 0.03 0.01 100 1015.8
20260904104059 74 268 0.0 0.0 0.00 0.03 0.01 100 1015.8
20260904103559 73 268 0.0 0.0 0.00 0.03 0.01 99 1015.7
20260904103106 74 268 0.0 0.0 0.01 0.03 0.01 99 1015.6
20260904102002 74 268 0.0 0.0 0.01 0.03 0.01 100 1015.5
20260904101503 74 269 0.0 0.0 0.01 0.03 0.01 100 1015.5
20260904101002 74 269 0.0 0.0 0.01 0.03 0.01 100 1015.6
20260904100501 74 268 0.0 0.0 0.01 0.03 0.01 100 1015.6
20260904100002 74 269 0.0 0.0 0.01 0.03 0.01 100 1015.6
20260904095604 73 268 0.0 0.0 0.01 0.03 0.01 99 1015.6
20260904095100 74 269 0.0 0.0 0.01 0.03 0.01 99 1015.6
20260904094600 74 269 0.0 0.0 0.01 0.03 0.01 99 1015.6
20260904094100 74 269 0.0 0.0 0.01 0.03 0.01 99 1015.5
20260904093600 74 269 0.0 0.0 0.01 0.03 0.01 99 1015.5
20260904093100 74 269 0.0 0.0 0.01 0.03 0.01 99 1015.5
20260904092103 74 268 0.0 0.0 0.00 0.02 0.00 99 1015.4
20260904091558 74 269 0.0 0.0 0.00 0.02 0.00 99 1015.5
20260904091058 74 269 0.0 0.0 0.00 0.02 0.00 99 1015.4
20260904090557 74 269 0.0 0.0 0.00 0.02 0.00 99 1015.6
20260904090057 74 269 0.0 0.0 0.00 0.02 0.00 99 1015.7
20260904085557 74 269 0.0 0.0 0.00 0.02 0.00 100 1015.8
20260904085057 74 268 0.0 0.0 0.00 0.02 0.00 99 1015.7
20260904084559 74 269 0.0 0.0 0.00 0.02 0.00 99 1015.6
20260904084057 74 269 0.0 0.0 0.00 0.02 0.00 99 1015.7
20260904083556 74 269 0.0 0.0 0.00 0.02 0.00 99 1015.7
20260904083059 74 269 0.0 0.0 0.00 0.02 0.00 99 1015.7
20260904082057 74 269 0.0 0.0 0.00 0.02 0.00 99 1015.7
20260904081557 74 268 0.0 0.0 0.00 0.02 0.00 99 1015.7
20260904081056 74 269 0.0 0.0 0.00 0.02 0.00 99 1015.7
20260904080556 74 269 0.0 0.0 0.00 0.02 0.00 99 1015.6
20260904080057 75 269 0.0 0.0 0.00 0.02 0.00 99 1015.6
20260904075557 75 269 0.0 0.0 0.00 0.02 0.00 99 1015.6
20260904075055 75 269 0.0 0.0 0.00 0.02 0.00 99 1015.5
20260904074620 75 268 0.0 0.0 0.00 0.02 0.00 99 1015.5
20260904074055 75 269 0.0 0.0 0.00 0.02 0.00 99 1015.7
20260904073557 75 269 0.0 0.0 0.00 0.02 0.00 99 1015.6
20260904073053 75 269 0.0 0.0 0.00 0.02 0.00 99 1015.7
20260904072052 75 269 0.0 0.0 0.00 0.02 0.00 99 1015.6
20260904071553 75 269 0.0 0.0 0.00 0.02 0.00 99 1015.7
20260904071053 75 269 0.0 0.0 0.00 0.02 0.00 99 1015.6
20260904070554 75 269 0.0 0.0 0.00 0.02 0.00 99 1015.7
20260904070051 75 269 0.0 0.0 0.00 0.02 0.00 99 1015.7
20260904065550 75 269 0.0 0.0 0.00 0.02 0.00 99 1015.7
20260904065050 76 269 0.0 0.0 0.00 0.02 0.00 98 1015.7
20260904064549 76 268 0.0 0.0 0.00 0.02 0.00 99 1015.8
20260904064050 76 269 0.0 0.0 0.00 0.02 0.00 98 1015.8
20260904063549 76 269 0.0 0.0 0.00 0.02 0.00 99 1015.8
20260904063105 76 269 0.0 0.0 0.00 0.02 0.00 99 1015.9
20260904062049 76 269 0.0 0.0 0.00 0.02 0.00 99 1015.9
20260904061553 76 269 0.0 0.0 0.00 0.02 0.00 98 1015.9
20260904061047 76 269 0.0 0.0 0.00 0.02 0.00 98 1015.8
20260904060546 77 269 0.0 0.0 0.00 0.02 0.00 98 1015.9
20260904060107 77 269 0.0 0.0 0.00 0.02 0.00 98 1016.0
20260904055546 77 269 0.0 0.0 0.00 0.02 0.00 98 1016.1
20260904055044 77 268 0.0 1.0 0.00 0.02 0.00 98 1016.1
20260904054544 77 269 0.0 1.0 0.00 0.02 0.00 98 1016.2
20260904054044 77 268 0.0 1.0 0.00 0.02 0.00 98 1016.2
20260904053543 77 268 0.0 1.0 0.00 0.02 0.00 98 1016.2
20260904053043 77 269 0.0 1.0 0.00 0.02 0.00 98 1016.3
20260904052041 77 271 0.0 1.0 0.00 0.02 0.00 98 1016.3
20260904051542 77 271 0.0 1.0 0.00 0.02 0.00 99 1016.4
20260904051040 77 262 0.0 1.0 0.00 0.02 0.00 98 1016.5
20260904050539 77 261 0.0 1.0 0.00 0.02 0.00 99 1016.6
20260904050039 77 260 0.0 1.0 0.00 0.02 0.00 98 1016.6
20260904045538 77 261 0.0 1.0 0.00 0.02 0.00 99 1016.7
20260904045037 77 277 0.0 1.0 0.00 0.02 0.00 99 1016.7
20260904044547 77 281 0.0 2.0 0.00 0.02 0.00 99 1016.7
20260904044037 77 278 0.0 2.0 0.00 0.02 0.00 99 1016.7
20260904043536 77 278 0.0 1.0 0.00 0.02 0.00 99 1016.8
20260904043037 77 278 0.0 1.0 0.00 0.02 0.00 99 1016.8
20260904042036 76 278 0.0 0.0 0.00 0.02 0.00 99 1016.9
20260904041535 76 278 0.0 1.0 0.00 0.02 0.00 99 1016.9
20260904041033 76 278 0.0 1.0 0.00 0.02 0.00 99 1016.9
20260904040534 76 278 0.0 1.0 0.00 0.02 0.00 98 1016.9
20260904040032 76 278 0.0 1.0 0.00 0.02 0.00 99 1017.0
20260904035532 76 278 0.0 0.0 0.00 0.02 0.02 98 1017.1
20260904035031 76 278 0.0 0.0 0.00 0.02 0.02 98 1017.1